Location: Krasnoyarskiy Pitomnik
(51.1333°N, 71.6167°E)
Time: 10:02:59
(UTC+00:00)

Altair - Pass Details

Date: 17 April 2024
Orbit: 1502 x 1682 km, 47.2° (Epoch: 23 May)

Event Time Altitude Azimuth Distance (km) Brightness Sun altitude
Rises 18:54:51 0° 276° (W) 4,852 10.3 -27.9°
Reaches altitude 10° 18:58:03 10° 273° (W) 3,842 9.6 -27.9°
Maximum altitude 19:07:37 64° 196° (SSW) 1,709 7.4 -28.0°
Enters shadow 19:12:31 31° 126° (SE) 2,441 8.2 -28.0°
Exits shadow 19:18:52 - 115° (ESE) 4,352 9.7 -28.0°
Sets 19:19:50 0° 115° (ESE) 4,663 9.8 -28.0°
